Location: Myra
(43.4160°N, 88.0960°W)
Time: 16:25:26
(UTC-06:00)

Daily predictions for brighter satellites

Satellite Brightness Start Highest point End
(mag) Time Altitude Azimuth Time Altitude Azimuth Time Altitude Azimuth
Cosmos 1763 Rocket 3.5 16:43:19 10° NNW 16:48:28 59° ENE 16:53:31 10° SE
Meteor 1-26 Rocket 4.4 16:44:13 10° S 16:49:35 52° E 16:54:56 10° NNE
Meteor 1-28 Rocket 4.2 16:50:13 10° NE 16:53:22 26° E 16:56:29 10° SSE
Cosmos 304 Rocket 3.7 16:52:49 10° NNW 16:57:38 68° ENE 17:02:23 10° SSE
Cosmos 1606 3.9 16:57:47 10° SE 17:00:45 22° E 17:03:43 10° NE
Meteor 2-10 Rocket 4.5 16:58:09 10° SSW 17:03:15 52° WNW 17:08:38 10° N
Lacrosse 5 3.6 16:59:43 10° WNW 17:03:38 22° NNW 17:07:33 10° NNE
Cosmos 1908 Rocket 3.8 16:59:49 10° N 17:03:59 44° ENE 17:08:07 10° SSE
Cosmos 1733 Rocket 3.3 16:59:51 10° N 17:04:18 77° W 17:08:44 10° S
Cosmos 1814 Rocket 4.1 17:00:47 10° NNW 17:06:11 89° WSW 17:11:32 10° SSE
COSMOS 2455 3.1 17:00:28 10° SW 17:06:28 77° WNW 17:12:32 10° NNE
Cosmos 1933 4.3 17:03:56 10° SSW 17:07:51 50° W 17:11:48 10° N
Cosmos 1484 Rocket 2.7 17:04:23 10° SSE 17:08:12 65° ENE 17:12:07 10° N
CZ-4 R/B 1.5 17:06:14 10° SSE 17:09:56 47° ENE 17:13:38 10° N
Timation 1 Rocket 4.4 17:03:57 10° SSW 17:09:57 90° WNW 17:16:01 10° NNE
SL-27 R/B 2.7 17:06:49 10° N 17:10:01 41° ENE 17:13:13 10° SE
Cosmos 540 Rocket 3.9 17:07:10 10° N 17:12:00 37° ENE 17:16:46 10° SE
CSL-04 Rocket 3.7 17:08:52 10° SSE 17:14:09 87° WSW 17:19:33 10° NNW
USA 234 4.3 17:11:18 11° ENE 17:16:27 27° SE 17:21:49 10° S
Cosmos 44 3.9 17:12:45 10° NNW 17:16:57 33° NE 17:21:20 10° ESE
Cosmos 2233 Rocket 4.0 17:10:53 10° S 17:17:07 80° E 17:23:20 10° N
Cosmos 1340 4.3 17:13:58 10° SW 17:17:27 35° WNW 17:20:59 10° N
Cosmos 2082 Rocket 2.5 17:12:22 10° NNW 17:17:49 44° ENE 17:23:12 10° SE
Cosmos 1862 Rocket 4.0 17:13:28 10° SSW 17:17:52 68° W 17:22:21 10° N
Ariane Rocket 3.1 17:15:58 10° SSE 17:21:04 85° WSW 17:26:11 10° NNW
Cosmos 1437 4.1 17:20:59 10° SSW 17:23:59 40° WNW 17:27:01 10° N
Cosmos 841 Rocket 3.5 17:19:40 10° NNW 17:24:59 90° W 17:30:15 10° SSE
Sich 1 Rocket 3.5 17:21:16 10° N 17:25:41 63° E 17:30:06 10° SSE
Meteor 1-20 Rocket 4.1 17:20:14 10° N 17:25:48 72° ENE 17:31:16 10° SSE
BREEZE-M DEB (TANK) 2.9 17:24:00 10° NW 17:25:57 27° NNE 17:27:38 18° ENE
ERS-2 2.5 17:24:05 10° SE 17:27:32 40° ENE 17:31:00 10° N
Okean 1-7 3.5 17:24:27 10° SSE 17:28:33 40° E 17:32:41 10° NNE
Meteor 1-25 Rocket 4.3 17:22:53 10° N 17:28:46 84° E 17:34:33 10° S
AQUARIUS 4.4 17:25:53 10° S 17:30:21 76° WSW 17:34:53 10° NNW
ALOS 2.9 17:29:09 10° SE 17:33:17 32° ENE 17:37:26 10° N
Cosmos 1782 2.9 17:30:27 10° S 17:34:23 56° E 17:38:19 10° NNE
Cosmos 405 Rocket 3.6 17:32:18 10° SSE 17:35:29 26° E 17:36:33 23° ENE
Cosmos 1486 Rocket 4.1 17:34:20 10° SSW 17:39:32 77° WNW 17:44:49 10° NNE
SMAP 3.7 17:36:00 10° S 17:40:34 59° W 17:45:11 10° NNW
Cosmos 1633 2.4 17:41:51 10° N 17:45:32 84° E 17:49:12 10° S
Cosmos 1782 Rocket 3.4 17:44:22 10° N 17:48:43 78° E 17:53:05 10° SSE
USA 116 4.0 17:45:44 10° N 17:50:13 77° WNW 17:54:06 10° SSW
CZ-4C R/B 3.1 17:45:15 10° NNW 17:52:02 48° NE 17:58:04 16° ESE
COSMO-SKYMED 1 2.5 17:50:47 10° NNE 17:55:07 67° ESE 17:59:26 10° S
CENTAUR R/B 4.0 17:49:44 10° W 17:55:21 32° NW 18:01:40 10° NNE
Meteor 1-27 Rocket 4.1 17:50:00 10° SSE 17:55:32 44° E 18:01:08 10° NNE
YAOGAN 1 2.8 17:51:22 10° S 17:55:41 74° WSW 18:00:01 10° NNW
Cosmos 1354 Rocket 3.9 17:52:25 10° SSW 17:57:42 80° ESE 18:02:23 13° NNE
FENGYUN 3A 3.7 17:52:52 10° SSE 17:58:08 57° ENE 18:03:27 10° N
Cosmos 1891 Rocket 4.4 17:54:12 10° S 18:00:15 64° E 18:06:16 10° NNE
SPOT 3 Rocket 3.4 17:59:00 10° SSE 18:04:12 75° ENE 18:09:25 10° N
Meteor 1-10 Rocket 4.2 17:59:38 10° S 18:05:19 86° E 18:11:09 10° N
Cosmos 1833 Rocket 2.9 18:05:57 10° NNW 18:11:34 71° WSW 18:17:08 10° SSE
Nadezhda 4 Rocket 3.9 18:08:38 10° N 18:14:40 57° ENE 18:20:40 10° SSE
Cosmos 2369 Rocket 4.3 18:11:15 10° SE 18:11:27 11° SE 18:11:27 11° SE
Cosmos 2221 Rocket 3.9 18:12:59 10° SSW 18:17:21 65° W 18:21:46 10° N
Cosmos 2297 3.8 18:13:51 10° SSW 18:19:33 76° WNW 18:23:47 19° NNE
Cosmos 2151 Rocket 4.1 18:16:19 10° N 18:27:14 - SSE 18:19:30 42° NNE
Cosmos 2034 Rocket 3.9 18:16:04 10° S 18:22:26 82° E 18:28:48 10° N
Cosmos 2278 Rocket 3.7 18:18:14 10° WSW 18:23:17 32° NW 18:28:23 10° N
Meteor 2-20 4.3 18:19:52 10° N 18:25:59 86° E 18:32:03 10° S
Timation 2 Rocket 4.0 18:20:48 10° NNW 18:27:35 67° ENE 18:31:12 28° SE
NOAA 12 4.2 18:25:13 10° S 18:30:32 75° WSW 18:35:52 10° NNW
Cosmos 1092 Rocket 4.0 18:26:43 10° N 18:32:45 55° ENE 18:38:47 10° SSE
Okean 2 Rocket 3.9 18:29:20 10° NNW 18:33:45 53° W 18:38:09 10° S
Cosmos 44 Rocket 3.6 18:29:44 10° NW 18:34:35 65° WSW 18:37:32 24° SSE
Meteor 1-11 Rocket 3.7 18:28:48 10° NNW 18:34:42 85° W 18:40:25 10° S
Thor Agena Rocket 4.2 18:36:30 39° SSE 18:36:30 39° SSE 18:40:00 10° S
Cosmos 1441 Rocket 3.5 18:32:55 10° SSW 18:36:51 66° WNW 18:36:58 65° WNW
Cosmos 405 3.9 18:34:47 10° NNW 18:38:16 48° W 18:41:44 10° S
Cosmos 292 Rocket 4.4 18:36:34 10° NNW 18:41:11 53° WSW 18:45:48 10° S
PKM 4.3 18:38:12 10° SW 18:45:04 69° S 18:45:04 69° S
Lacrosse 5 3.8 18:44:48 10° NW 18:47:38 17° N 18:47:38 17° N
Cosmos 968 Rocket 3.6 18:54:21 10° SSW 18:59:30 71° WNW 18:59:38 70° NW
USA 234 3.1 18:58:41 62° NE 18:59:57 87° NW 19:06:30 10° SW
Cosmos 2082 Rocket 4.1 18:56:54 10° NW 19:01:40 28° WSW 19:06:24 10° SSW
ALOS 4.2 19:06:44 10° SSW 19:10:42 28° W 19:14:43 10° NW
BREEZE-M DEB (TANK) 4.5 18:51:14 10° W 19:20:53 81° N 19:21:21 77° NE
CZ-4C R/B 3.7 19:33:51 10° NW 19:40:46 48° WSW 19:43:23 36° SSW
